{"data":{"norad_id":53490,"intl_designator":"2022-099AB","name":"STARLINK-4387","alt_names":[],"object_type":"PAYLOAD","status":"ACTIVE","operator":null,"country":"US","launch_date":"2022-08-12","launch_site_code":"AFWTR","launch_vehicle":null,"mission":null,"orbit_class":"UNKNOWN","rcs_meters":null,"size_class":null,"mass_kg":null,"dimensions":null,"purposes":["comms"],"wikipedia_slug":null,"has_3d_model":false,"image_url":null,"decayed_at":null,"tle_current":{"epoch":"2026-05-24T21:46:07.187232Z","epoch_age_seconds":79776,"freshness":"FRESH","line1":"1 53490U 22099AB  26144.90702763  .00009890  00000+0  34662-3 0  9993","line2":"2 53490  97.6036 267.6757 0001523  68.8750 291.2653 15.29675443207596","mean_motion":15.29675443,"eccentricity":0.0001523,"inclination_deg":97.6036,"raan_deg":267.6757,"arg_perigee_deg":68.875,"mean_anomaly_deg":291.2653,"bstar":0.00034662,"rev_number":20759,"period_min":94.137616354478,"perigee_km":475.73774550435,"apogee_km":477.82575375549,"semimajor_km":6854.9187496299,"source":"CELESTRAK","updated_at":"2026-05-25T13:38:17.435079Z"}}}